Jacksonville, IL

3:25 AM CST on December 09, 2016 (GMT -0600)
Jacksonville Municipal

Weather History for KIJX - July, 2013

Change the Weather History Date:

Thursday, July 4, 2013

  Actual Average (KSPI) Record (KSPI)
Temperature  
Mean Temperature 74 °F -  
Max Temperature 84 °F 85 °F 105 °F (1936)
Min Temperature 64 °F 65 °F 49 °F (1967)
Cooling Degree Days 8    
Growing Degree Days 24 (Base 50)    
Moisture  
Dew Point 59 °F    
Average Humidity 61    
Maximum Humidity 84    
Minimum Humidity 41    
Precipitation  
Precipitation 0.00 in - - ()
Sea Level Pressure  
Sea Level Pressure 30.07 in    
Wind  
Wind Speed 6 mph (SSE)    
Max Wind Speed 9 mph    
Max Gust Speed 16 mph    
Visibility 10 miles    
Events      
Averages and records for this station are not official NWS values.
T = Trace of Precipitation, MM = Missing Value Source: NWS Daily Summary

Daily Weather History Graph

Daily Weather History Graph

Search for Another Location

Airport or City:

Trip Planner

Search our weather history database for the weather conditions in past years. The results will help you decide how hot, cold, wet, or windy it might be!

Date:

Astronomy

Jul. 04, 2013 Rise Set
Actual Time 5:38 AM CDT 8:32 PM CDT
Civil Twilight 5:05 AM CDT 9:04 PM CDT
Nautical Twilight 4:24 AM CDT 9:45 PM CDT
Astronomical Twilight 3:37 AM CDT 10:32 PM CDT
Moon 2:54 AM CDT (7/4) 5:37 PM CDT (7/4)
Length of Visible Light 15h 58m
Length of Day
14h 54m
Waning Crescent, 11% of the Moon is Illuminated
Jul 4
Waning Crescent
Jul 8
New
Jul 15
First Quarter
Jul 22
Full
Jul 29
Last Quarter

Hourly Weather History & Observations

Time (CDT) Temp. Heat Index Dew Point Humidity Pressure Visibility Wind Dir Wind Speed Gust Speed Precip Events Conditions
12:15 AM 70.7 °F - 59.2 °F 67% 30.08 in 10.0 mi SSE 8.1 mph - N/A   Clear
12:35 AM 70.0 °F - 59.2 °F 68% 30.08 in 10.0 mi SSE 8.1 mph - N/A   Clear
12:55 AM 70.5 °F - 58.8 °F 66% 30.08 in 10.0 mi SSE 6.9 mph - N/A   Mostly Cloudy
1:15 AM 69.8 °F - 59.2 °F 69% 30.08 in 10.0 mi SSE 9.2 mph - N/A   Scattered Clouds
1:35 AM 69.8 °F - 59.4 °F 69% 30.08 in 10.0 mi South 8.1 mph - N/A   Mostly Cloudy
1:55 AM 69.6 °F - 59.5 °F 70% 30.08 in 10.0 mi SSE 8.1 mph - N/A   Mostly Cloudy
2:15 AM 69.8 °F - 59.9 °F 71% 30.07 in 10.0 mi South 8.1 mph - N/A   Overcast
2:35 AM 70.3 °F - 59.7 °F 69% 30.07 in 10.0 mi South 6.9 mph 16.1 mph N/A   Mostly Cloudy
2:55 AM 69.8 °F - 59.5 °F 70% 30.07 in 10.0 mi South 8.1 mph - N/A   Mostly Cloudy
3:15 AM 68.9 °F - 59.2 °F 71% 30.06 in 10.0 mi South 9.2 mph - N/A   Scattered Clouds
3:35 AM 68.5 °F - 59.2 °F 72% 30.07 in 10.0 mi South 6.9 mph - N/A   Clear
3:55 AM 68.2 °F - 59.0 °F 72% 30.07 in 10.0 mi SSW 6.9 mph - N/A   Clear
4:15 AM 67.5 °F - 59.0 °F 74% 30.07 in 10.0 mi South 4.6 mph - N/A   Clear
4:35 AM 66.6 °F - 59.0 °F 77% 30.07 in 10.0 mi South 4.6 mph - N/A   Clear
4:55 AM 65.7 °F - 59.0 °F 79% 30.08 in 10.0 mi SSE 3.5 mph - N/A   Clear
5:15 AM 65.3 °F - 59.2 °F 81% 30.08 in 10.0 mi SSE 5.8 mph - N/A   Clear
5:35 AM 64.6 °F - 59.2 °F 83% 30.08 in 10.0 mi SSE 6.9 mph - N/A   Clear
5:55 AM 64.2 °F - 59.4 °F 84% 30.08 in 10.0 mi SSE 5.8 mph - N/A   Clear
6:15 AM 64.9 °F - 59.4 °F 82% 30.08 in 10.0 mi South 6.9 mph - N/A   Clear
6:35 AM 65.8 °F - 59.2 °F 79% 30.08 in 10.0 mi South 6.9 mph - N/A   Clear
6:55 AM 66.6 °F - 59.5 °F 78% 30.09 in 10.0 mi South 6.9 mph - N/A   Clear
7:15 AM 67.5 °F - 59.9 °F 77% 30.10 in 10.0 mi South 6.9 mph - N/A   Clear
7:35 AM 68.9 °F - 60.1 °F 73% 30.10 in 10.0 mi South 5.8 mph - N/A   Clear
7:55 AM 69.8 °F - 60.3 °F 72% 30.10 in 10.0 mi South 5.8 mph - N/A   Clear
8:15 AM 70.7 °F - 60.4 °F 70% 30.11 in 10.0 mi South 6.9 mph - N/A   Clear
8:35 AM 72.1 °F - 61.0 °F 68% 30.11 in 10.0 mi SSW 5.8 mph - N/A   Clear
8:55 AM 73.2 °F - 61.0 °F 65% 30.11 in 10.0 mi SSW 5.8 mph - N/A   Clear
9:15 AM 74.3 °F - 60.8 °F 63% 30.10 in 10.0 mi SSW 6.9 mph - N/A   Clear
9:35 AM 74.7 °F - 60.6 °F 61% 30.10 in 10.0 mi SSW 4.6 mph - N/A   Clear
9:55 AM 75.7 °F - 61.0 °F 60% 30.10 in 10.0 mi Calm Calm - N/A   Clear
10:15 AM 76.8 °F - 61.0 °F 58% 30.10 in 10.0 mi South 3.5 mph - N/A   Clear
10:35 AM 77.9 °F - 61.3 °F 57% 30.10 in 10.0 mi WSW 4.6 mph - N/A   Clear
10:55 AM 78.4 °F - 60.6 °F 54% 30.10 in 10.0 mi SSW 3.5 mph - N/A   Clear
11:15 AM 79.7 °F - 60.4 °F 52% 30.10 in 10.0 mi SW 4.6 mph - N/A   Clear
11:35 AM 80.1 °F 81.0 °F 60.6 °F 51% 30.10 in 10.0 mi WSW 3.5 mph - N/A   Clear
11:55 AM 80.6 °F 81.4 °F 60.6 °F 50% 30.09 in 10.0 mi Calm Calm - N/A   Clear
12:15 PM 80.8 °F 81.4 °F 59.7 °F 49% 30.09 in 10.0 mi West 3.5 mph - N/A   Scattered Clouds
12:35 PM 82.0 °F 82.4 °F 59.7 °F 47% 30.09 in 10.0 mi Calm Calm - N/A   Scattered Clouds
12:55 PM 81.9 °F 81.9 °F 58.8 °F 45% 30.09 in 10.0 mi Calm Calm - N/A   Scattered Clouds
1:15 PM 81.7 °F 81.6 °F 57.7 °F 44% 30.08 in 10.0 mi SE 5.8 mph - N/A   Mostly Cloudy
1:35 PM 82.8 °F 82.4 °F 57.2 °F 42% 30.08 in 10.0 mi SE 4.6 mph - N/A   Scattered Clouds
1:55 PM 83.7 °F 83.1 °F 57.7 °F 41% 30.08 in 10.0 mi SSE 5.8 mph - N/A   Clear
2:15 PM 83.1 °F 83.0 °F 59.2 °F 44% 30.08 in 10.0 mi SSE 5.8 mph - N/A   Scattered Clouds
2:35 PM 82.4 °F 82.6 °F 59.5 °F 46% 30.07 in 10.0 mi SE 6.9 mph - N/A   Scattered Clouds
2:55 PM 83.7 °F 83.6 °F 59.5 °F 44% 30.07 in 10.0 mi South 6.9 mph - N/A   Mostly Cloudy
3:15 PM 82.8 °F 82.5 °F 58.1 °F 43% 30.06 in 10.0 mi SE 5.8 mph - N/A   Scattered Clouds
3:35 PM 81.1 °F 81.6 °F 59.9 °F 48% 30.06 in 10.0 mi SE 6.9 mph - N/A   Mostly Cloudy
3:55 PM 80.8 °F 81.2 °F 59.0 °F 47% 30.05 in 10.0 mi SSE 4.6 mph - N/A   Scattered Clouds
4:15 PM 82.9 °F 82.8 °F 59.2 °F 44% 30.05 in 10.0 mi South 6.9 mph - N/A   Scattered Clouds
4:35 PM 83.1 °F 83.3 °F 60.1 °F 46% 30.04 in 10.0 mi SSE 8.1 mph - N/A   Clear
4:55 PM 83.3 °F 82.9 °F 57.7 °F 42% 30.04 in 10.0 mi Calm Calm - N/A   Clear
5:15 PM 82.0 °F 82.0 °F 57.9 °F 44% 30.04 in 10.0 mi SSW 8.1 mph - N/A   Clear
5:35 PM 83.1 °F 82.7 °F 57.7 °F 42% 30.03 in 10.0 mi South 6.9 mph - N/A   Clear
5:55 PM 82.6 °F 82.2 °F 57.2 °F 42% 30.04 in 10.0 mi South 5.8 mph - N/A   Clear
6:15 PM 80.2 °F 80.5 °F 57.2 °F 45% 30.04 in 10.0 mi South 5.8 mph - N/A   Clear
6:35 PM 79.3 °F - 57.7 °F 47% 30.03 in 10.0 mi SSE 3.5 mph - N/A   Clear
6:55 PM 79.9 °F - 59.5 °F 50% 30.03 in 10.0 mi SSE 4.6 mph - N/A   Clear
7:15 PM 79.9 °F - 58.3 °F 48% 30.03 in 10.0 mi South 5.8 mph - N/A   Clear
7:35 PM 79.2 °F - 59.2 °F 50% 30.04 in 10.0 mi SSE 3.5 mph - N/A   Clear
7:55 PM 77.9 °F - 59.7 °F 53% 30.04 in 10.0 mi SSE 5.8 mph - N/A   Clear
8:15 PM 76.6 °F - 59.4 °F 55% 30.05 in 10.0 mi SSE 6.9 mph - N/A   Clear
8:35 PM 75.2 °F - 59.5 °F 58% 30.05 in 10.0 mi SE 6.9 mph - N/A   Clear
8:55 PM 73.2 °F - 60.1 °F 63% 30.05 in 10.0 mi SE 5.8 mph - N/A   Clear
9:15 PM 73.6 °F - 60.1 °F 63% 30.05 in 10.0 mi SE 5.8 mph - N/A   Clear
9:35 PM 72.5 °F - 60.1 °F 65% 30.06 in 10.0 mi SE 5.8 mph - N/A   Clear
9:55 PM 72.5 °F - 60.1 °F 65% 30.06 in 10.0 mi SE 5.8 mph - N/A   Clear
10:15 PM 72.0 °F - 60.1 °F 66% 30.07 in 10.0 mi SE 4.6 mph - N/A   Clear
10:35 PM 70.7 °F - 60.4 °F 70% 30.06 in 10.0 mi SE 5.8 mph - N/A   Clear
10:55 PM 70.0 °F - 60.1 °F 71% 30.06 in 10.0 mi SE 5.8 mph - N/A   Clear
11:15 PM 69.6 °F - 59.9 °F 71% 30.06 in 10.0 mi SSE 3.5 mph - N/A   Clear
11:35 PM 70.9 °F - 59.2 °F 66% 30.05 in 10.0 mi SE 4.6 mph - N/A   Clear
11:55 PM 67.5 °F - 59.5 °F 76% 30.06 in 10.0 mi SE 6.9 mph - N/A   Clear